GFSSW_sfc_temp_159.txt.gz
Temp
60 60 59 59 59 59 59 59 60 59 59 60 60 60 60 60 60 58 54 63 62 65 67 66 67 67 68 66 67 66 58 56 59 60 66 71 71 76 80 80 81 86 88 86 84
59 59 59 59 59 59 59 59 59 59 59 59 59 60 59 59 57 53 62 63 66 66 65 63 60 63 62 62 65 62 57 59 64 67 68 71 73 75 74 75 78 81 89 90 84
59 59 59 59 59 59 58 58 58 59 59 59 59 59 59 60 51 60 67 65 67 69 66 65 63 61 57 60 61 61 55 64 64 67 69 69 69 74 73 71 78 79 84 85 82
58 59 59 59 58 58 58 58 58 58 58 58 58 59 59 57 50 63 69 68 68 69 66 62 60 56 54 54 61 54 60 61 64 66 64 64 68 67 71 75 82 82 80 83 80
58 58 58 58 57 57 58 58 58 58 58 58 58 59 56 51 55 66 66 66 68 66 63 60 57 55 52 54 55 54 60 61 63 63 64 66 64 65 68 74 78 80 79 80 83
57 57 57 57 57 57 58 57 57 57 57 58 58 59 52 51 66 65 64 64 65 65 63 62 59 60 55 54 53 56 57 58 61 63 64 61 64 66 70 76 75 76 78 81 82
57 57 57 57 57 57 57 57 56 57 58 59 59 58 50 58 66 65 62 62 64 64 62 65 65 59 58 53 59 57 52 56 58 60 60 64 58 61 72 75 73 74 77 79 81
57 57 56 57 57 57 57 57 57 58 59 61 61 57 50 64 65 62 62 63 63 64 63 65 67 62 57 60 56 52 52 47 56 59 62 62 53 68 74 72 72 75 77 79 81
57 56 56 57 57 57 56 56 59 60 61 61 57 53 56 66 62 69 66 65 64 63 63 67 63 58 56 50 47 48 43 44 49 60 59 59 56 67 72 72 70 73 75 78 80
57 56 56 57 57 56 55 57 60 60 60 61 58 50 59 60 67 69 67 64 62 61 59 58 57 52 51 48 39 42 42 46 46 55 58 56 56 64 68 69 68 70 73 75 78
56 56 56 56 56 55 56 60 60 57 55 55 57 55 59 66 69 68 66 61 60 56 50 54 48 44 49 51 51 49 45 44 49 55 52 53 55 59 63 66 66 69 72 74 76
56 56 56 55 55 55 56 61 60 61 50 58 56 56 61 63 58 64 67 57 53 49 51 48 42 52 54 52 48 47 44 44 50 53 52 51 51 58 61 63 66 68 71 73 76
55 55 55 55 55 57 56 60 64 63 50 54 59 59 62 64 57 58 63 59 53 49 49 44 49 53 50 48 45 45 43 44 43 50 52 50 47 52 60 64 66 69 73 75 76
55 55 55 54 57 56 60 61 63 62 44 49 55 60 63 63 54 66 64 58 53 47 49 47 52 48 48 46 48 40 50 47 45 42 38 51 38 52 58 60 64 68 71 74 76
55 55 54 53 57 60 60 61 60 59 33 52 55 68 64 55 56 57 62 56 48 48 46 42 46 44 43 46 50 42 51 47 45 42 42 44 41 49 57 56 62 67 71 73 78
54 54 54 54 54 60 60 60 60 43 33 46 54 53 52 55 53 58 57 56 54 46 47 47 55 50 48 51 49 49 41 42 42 41 30 41 42 46 52 57 63 69 72 73 76
54 53 55 58 58 61 59 58 43 36 50 44 46 51 48 47 49 51 48 45 40 32 38 46 47 52 51 42 46 42 36 29 26 26 28 46 41 46 58 63 66 70 73 74 75
53 52 55 60 61 57 59 52 37 41 43 51 48 48 42 48 47 47 44 41 46 43 35 33 36 45 49 44 41 38 40 32 22 26 35 44 35 46 59 64 67 72 75 74 73
51 57 61 63 60 60 57 39 39 43 48 44 45 40 42 47 44 44 42 41 44 45 33 33 35 50 50 50 42 35 32 45 32 39 36 41 47 56 60 62 65 67 69 71 72
49 54 61 61 58 60 50 39 42 48 49 47 36 41 36 41 39 40 38 46 44 47 44 35 31 45 47 49 43 38 46 30 33 26 26 38 41 45 55 58 64 66 68 71 72
53 57 63 59 61 55 41 41 45 52 51 43 41 39 41 36 38 36 38 45 47 45 44 36 32 38 43 40 41 36 34 36 40 38 30 33 42 58 60 62 63 68 71 70 72
48 53 61 60 52 45 44 42 45 48 51 47 46 43 39 39 35 36 37 41 48 44 34 38 34 32 36 48 49 47 41 41 33 33 36 34 43 64 64 67 66 68 68 73 73
45 47 59 59 42 41 43 42 45 45 46 44 43 46 44 37 33 37 39 48 47 41 34 38 34 31 35 42 44 37 44 45 44 38 31 27 41 55 59 59 63 65 69 69 66
50 47 50 48 46 40 37 38 41 49 45 46 44 44 40 37 41 36 38 43 45 43 46 41 36 35 34 38 43 38 42 45 41 32 32 32 34 47 55 59 63 65 66 62 58
46 40 41 42 44 40 38 38 38 38 46 45 42 45 39 33 35 38 41 39 43 45 42 39 33 38 42 40 41 43 42 41 37 38 34 36 36 43 58 61 61 61 60 57 55
44 42 44 41 41 40 39 41 38 41 39 41 40 44 41 36 38 34 37 37 36 40 38 39 35 40 39 45 44 43 46 44 45 44 41 39 39 51 62 61 57 57 56 54 54
46 47 43 41 40 39 42 41 40 41 44 45 44 39 41 46 46 46 43 41 39 37 36 36 38 35 34 44 44 37 39 42 42 42 39 35 44 54 53 54 53 54 54 52 52

GFSSW_sfc_temp_162.txt.gz
Temp
60 60 60 60 60 60 60 59 59 60 59 60 60 60 60 60 60 73 68 68 69 66 68 76 76 76 78 76 79 78 68 65 72 75 75 87 80 88 91 88 92 95 93 98 93
60 60 60 60 60 59 59 59 59 59 59 60 60 60 60 60 67 68 67 64 66 67 74 72 69 71 72 72 74 70 65 69 79 81 78 83 83 85 83 83 86 89 96 98 95
59 59 59 59 59 58 58 58 59 59 59 59 59 59 60 63 64 68 66 65 67 70 75 74 73 71 66 71 71 70 63 75 78 78 79 78 81 84 81 80 86 86 92 95 96
59 59 59 58 58 58 58 59 59 59 59 58 59 59 60 66 58 73 68 68 69 76 75 71 70 66 64 63 71 64 69 71 74 76 73 72 79 78 79 82 91 92 93 90 91
58 58 58 58 58 58 58 58 58 58 58 58 58 59 63 64 67 76 69 70 75 74 71 69 66 66 62 65 66 64 67 71 73 73 73 74 72 73 76 82 87 89 89 88 90
58 58 58 58 58 58 58 58 58 58 58 58 59 59 62 62 76 76 75 73 74 74 71 71 67 69 64 63 62 68 65 66 69 70 72 69 71 74 77 82 81 83 85 88 89
57 57 57 57 58 58 58 57 57 57 58 59 60 64 61 67 77 76 75 74 75 74 70 73 73 67 66 62 68 65 59 64 66 68 67 71 65 67 77 81 79 82 85 87 89
57 57 57 57 57 58 58 57 57 59 60 60 61 66 64 76 79 75 77 75 76 75 73 75 75 69 66 69 64 60 61 55 67 66 68 67 58 73 80 79 78 81 83 85 88
57 57 57 57 57 57 57 57 60 61 61 62 64 63 65 69 72 78 77 72 74 73 73 73 71 66 66 58 57 60 51 56 59 67 66 65 61 73 80 79 77 80 83 85 87
57 56 56 57 57 57 56 57 60 62 66 68 67 58 69 67 73 75 78 73 69 69 66 65 64 59 61 57 47 53 54 56 55 63 64 62 62 69 76 76 76 79 81 83 85
57 56 56 56 57 56 61 71 69 67 69 64 65 63 68 74 78 74 77 69 68 64 58 63 55 52 57 59 59 57 55 53 59 64 60 59 61 66 72 74 74 76 78 80 83
56 56 56 56 56 55 66 70 67 68 57 68 66 66 70 71 65 71 74 63 62 57 62 58 51 59 62 61 58 56 53 53 59 62 60 59 58 65 68 69 72 74 77 80 83
55 56 55 56 55 62 71 69 75 72 60 62 68 67 68 72 64 65 69 66 60 56 57 50 58 62 58 56 53 55 52 52 53 59 62 57 54 59 67 71 73 75 78 80 82
55 55 55 55 60 74 73 71 74 71 55 57 62 66 69 71 61 71 73 65 60 55 56 53 60 56 55 53 55 48 58 55 50 46 44 58 44 58 65 66 69 72 75 78 81
55 55 54 52 71 73 70 75 74 67 43 61 62 75 72 63 64 64 69 64 55 55 52 48 54 54 52 55 57 49 55 51 49 46 45 50 48 56 65 63 68 72 76 79 83
54 55 55 66 73 73 74 72 69 51 41 55 62 61 60 63 62 64 63 67 62 53 56 55 62 55 57 59 57 55 48 47 48 44 33 48 49 52 60 64 69 75 77 79 84
54 54 61 72 69 76 74 69 52 46 60 52 54 59 57 55 56 57 55 52 43 35 46 53 57 60 59 51 56 48 38 32 30 30 36 54 48 53 64 69 72 74 78 81 84
53 52 57 75 76 73 71 62 44 51 51 58 56 56 51 55 54 54 51 48 54 50 40 40 42 53 59 52 46 44 45 37 27 34 43 53 44 55 66 71 73 78 81 83 85
51 74 76 75 73 73 67 49 47 50 54 50 53 50 51 54 52 49 50 49 52 52 36 37 41 55 55 54 48 37 33 46 32 40 39 50 55 62 66 67 70 74 78 81 83
65 71 72 74 72 71 62 43 50 55 55 53 43 49 40 46 45 46 46 53 50 53 50 37 32 50 54 52 48 42 46 35 38 29 30 45 49 52 60 62 67 68 73 80 82
67 68 73 74 72 69 52 51 54 59 56 49 48 45 45 42 43 38 42 51 51 49 46 39 32 42 47 43 43 37 35 40 45 41 33 37 47 64 62 66 65 70 74 79 82
65 64 73 74 64 63 55 51 49 55 58 54 53 50 45 42 36 36 39 45 50 44 35 40 34 33 43 53 57 51 45 44 33 36 44 40 36 64 67 70 70 71 78 82 84
61 64 73 71 52 52 55 52 52 52 53 50 49 51 50 39 34 39 46 52 49 42 35 37 34 31 38 44 49 44 49 47 47 44 35 30 33 54 58 62 72 73 80 82 81
62 58 67 64 59 51 49 51 50 57 52 53 52 52 45 43 46 38 41 46 48 44 47 43 36 33 33 42 39 40 46 49 45 36 38 37 37 47 55 56 72 75 80 80 65
62 55 52 54 58 51 52 50 50 48 53 55 50 51 46 35 38 41 46 46 45 47 43 39 34 37 40 43 46 41 47 43 44 45 35 38 39 49 55 53 71 75 71 61 60
57 54 61 54 53 52 46 52 48 50 49 49 48 51 49 40 43 38 42 40 37 41 39 40 35 40 38 49 50 46 49 47 44 43 43 40 39 52 57 55 72 63 59 58 58
62 60 54 53 54 53 54 51 49 51 52 55 53 48 44 52 51 54 54 49 42 38 36 36 37 37 36 48 47 38 37 38 39 42 35 36 45 50 51 59 58 57 58 57 56

GFSSW_sfc_temp_165.txt.gz
Temp
61 60 60 60 60 60 60 60 60 60 60 60 60 60 60 60 61 77 74 69 72 68 68 82 82 82 84 80 84 86 70 68 73 77 82 92 91 97 97 92 96 100 99 102 99
60 60 60 60 60 60 59 59 60 60 60 60 60 60 60 60 70 77 67 68 67 68 79 78 77 78 76 77 80 75 68 70 81 85 84 89 91 92 88 88 90 95 101 104 103
59 60 59 59 59 59 59 59 60 60 60 60 60 60 60 64 72 75 68 68 68 70 81 81 80 77 73 78 77 75 67 75 79 84 86 85 86 92 87 85 89 90 96 100 101
59 59 59 59 59 59 59 59 59 60 60 59 59 59 60 70 63 79 69 69 70 77 79 78 76 72 71 71 77 68 74 75 77 80 80 79 84 83 86 87 95 96 98 100 99
59 59 59 58 59 59 59 59 59 59 59 59 59 59 64 70 74 78 70 71 78 80 77 75 72 72 68 72 73 70 72 75 78 78 78 80 77 77 80 89 92 95 95 97 96
58 58 58 58 59 58 58 58 58 58 58 59 59 59 67 66 83 84 81 80 80 79 78 77 74 75 70 70 69 73 73 73 74 74 77 74 74 76 79 86 87 88 90 93 94
58 58 58 58 58 58 58 57 57 57 59 60 60 66 70 73 84 85 82 81 82 79 75 79 78 72 73 68 75 72 65 69 71 72 71 75 67 69 79 84 84 84 86 88 91
58 57 57 57 58 58 58 57 58 60 60 60 61 72 68 84 87 83 85 81 84 82 79 81 80 74 70 74 70 65 66 59 70 73 74 71 59 73 80 80 79 82 85 87 91
57 57 57 57 57 58 57 57 60 61 61 62 67 71 69 72 77 83 86 77 80 80 79 79 75 69 70 63 60 64 56 60 63 74 72 69 63 73 80 80 79 81 84 86 89
57 57 57 57 57 57 56 56 61 61 65 75 75 66 74 72 79 80 86 81 75 75 72 70 68 63 65 61 50 56 58 61 60 69 70 66 65 73 77 79 79 82 84 86 87
57 57 56 56 57 56 60 70 71 68 75 70 71 70 73 80 82 79 82 77 74 70 61 69 58 52 58 64 64 62 59 59 64 69 64 63 65 69 75 77 77 82 82 83 86
57 56 56 56 56 56 65 76 73 74 63 75 74 73 77 78 68 77 80 67 67 60 66 63 56 64 65 65 61 59 55 56 63 67 64 64 63 68 72 73 77 79 81 83 85
56 56 56 56 56 61 78 75 82 80 64 69 74 73 74 76 70 71 74 71 65 61 62 55 62 68 63 60 58 58 54 55 56 62 66 60 57 64 71 74 75 78 81 83 84
55 55 55 55 59 83 79 82 84 79 59 64 69 72 75 77 67 78 79 71 65 59 60 59 67 63 61 58 59 51 61 59 55 52 48 60 44 59 66 68 72 75 77 79 83
55 55 54 53 76 78 78 84 82 73 47 67 67 81 77 70 71 70 75 68 59 61 57 54 57 55 55 58 61 52 62 56 55 53 49 53 45 56 66 64 70 73 76 79 83
55 55 55 71 80 84 86 81 75 55 46 61 70 67 66 70 68 71 69 72 69 60 61 58 67 61 61 63 63 61 55 56 55 48 36 49 47 53 58 65 71 76 78 80 83
55 54 60 77 75 86 84 75 56 52 67 59 60 65 64 63 63 63 61 58 50 38 49 57 61 67 67 58 61 56 45 35 33 33 38 55 48 55 66 71 74 75 79 82 84
53 52 65 82 86 83 77 65 50 60 59 64 62 62 59 62 60 60 57 51 58 54 41 44 44 56 60 54 50 47 43 34 28 34 43 56 48 56 69 74 77 79 81 84 84
53 78 82 83 84 80 69 56 54 56 60 57 59 56 57 60 58 54 55 53 55 55 37 38 44 58 58 59 54 40 35 47 35 43 41 50 52 65 71 71 74 75 77 81 83
69 78 81 84 82 75 67 47 58 63 62 59 49 56 50 53 51 50 49 57 52 56 51 39 32 52 57 58 57 43 48 34 35 29 30 42 47 50 61 66 70 72 74 79 84
69 73 80 85 81 73 60 58 62 66 63 54 52 51 52 46 47 43 45 53 53 51 49 40 33 43 52 47 46 40 36 39 45 42 35 37 47 57 57 62 69 72 75 80 85
72 68 81 82 68 69 62 60 53 61 64 61 59 57 50 47 42 39 41 47 50 45 36 44 35 34 44 57 60 52 47 45 37 39 46 44 44 58 62 64 65 72 77 82 87
67 71 83 78 56 57 62 61 62 60 59 58 55 58 56 47 35 40 48 55 53 45 35 39 35 33 43 50 42 41 46 49 47 46 38 34 40 59 62 62 66 69 77 79 86
69 64 71 74 68 59 56 57 57 65 60 60 58 59 53 49 50 43 45 48 50 48 49 44 36 34 36 44 45 37 41 49 49 38 41 42 45 52 59 60 64 67 77 79 75
71 63 62 57 61 59 60 59 57 55 61 62 58 58 54 40 46 44 46 52 51 49 45 40 34 41 44 43 43 45 46 50 48 48 40 45 47 55 58 57 61 67 76 65 62
61 60 64 61 62 60 57 59 55 57 57 55 53 57 56 46 46 41 47 44 40 42 40 43 35 41 43 50 50 47 49 46 48 47 44 43 44 59 61 57 60 62 67 60 59
70 69 61 57 62 61 61 58 57 59 60 61 59 56 55 57 57 58 58 55 51 40 37 38 36 35 38 48 45 35 35 35 37 38 34 34 47 52 46 58 64 65 64 59 58

GFSSW_sfc_temp_168.txt.gz
Temp
61 61 60 60 60 60 60 60 60 60 60 61 61 61 60 60 60 74 70 71 73 70 70 78 82 83 83 78 82 83 67 64 68 71 76 88 86 95 99 96 97 98 98 99 100
60 60 60 60 60 60 60 60 60 60 60 60 60 60 60 60 66 75 69 71 70 70 76 78 76 80 76 76 77 72 66 66 76 79 78 84 85 88 90 91 90 92 99 103 100
60 60 60 60 60 60 59 60 60 60 60 60 60 60 60 62 69 75 70 70 69 70 78 80 80 77 72 76 76 73 66 73 76 80 81 79 79 85 83 83 90 88 93 99 100
59 60 60 59 60 59 59 59 59 60 60 60 60 60 60 65 62 77 71 70 70 75 78 78 77 72 70 69 77 69 74 75 76 79 77 75 79 77 81 85 94 95 96 97 98
59 59 59 59 59 59 59 59 59 59 59 59 60 60 64 68 73 78 71 72 77 80 77 76 73 72 67 71 73 71 73 76 77 77 77 78 75 75 78 86 90 91 92 93 96
58 58 58 58 58 59 58 58 58 58 58 59 60 59 63 64 86 84 81 82 81 80 78 78 74 76 69 68 68 72 72 73 75 75 75 72 73 76 78 84 84 84 86 90 91
58 58 58 58 58 58 58 58 57 58 59 60 61 65 67 72 86 87 85 82 83 81 75 80 80 73 72 66 74 72 66 69 71 72 71 74 66 68 78 81 79 81 84 87 89
58 57 57 57 58 58 58 58 58 59 62 61 61 68 66 86 89 85 87 84 86 85 80 81 80 73 69 72 68 64 65 57 69 72 73 71 58 71 78 77 76 78 81 85 87
57 57 57 57 57 57 57 57 58 62 62 63 63 68 67 77 78 85 86 79 81 82 82 81 76 68 68 61 58 62 54 58 63 74 73 70 62 72 78 76 75 77 79 82 85
57 57 56 57 57 57 57 57 62 61 64 73 75 67 74 74 81 83 86 84 78 76 73 72 68 61 63 59 47 54 56 60 60 68 69 66 65 72 76 76 75 77 79 80 82
57 56 56 56 57 56 60 72 70 64 70 70 72 72 76 83 85 81 84 80 77 71 60 68 59 52 59 62 63 61 57 57 63 69 66 64 63 67 73 75 74 76 77 79 81
57 57 56 56 56 56 62 73 74 76 63 76 77 76 80 82 70 77 85 70 67 60 66 62 56 65 68 65 62 60 56 56 62 67 65 63 61 68 70 71 73 74 77 79 82
56 56 56 56 55 60 75 79 86 83 64 72 77 75 76 79 70 73 77 72 65 61 62 57 62 69 66 63 59 58 55 55 55 62 64 61 58 62 70 71 74 76 77 80 82
56 56 56 55 60 82 80 85 86 82 55 66 71 75 77 78 69 80 80 72 66 59 61 60 67 63 61 60 62 53 63 60 55 54 48 59 42 55 63 66 70 73 75 77 79
56 56 55 53 72 79 82 87 83 75 44 70 71 84 79 73 73 73 82 71 60 60 60 55 59 58 56 58 62 56 63 58 55 51 49 50 45 53 62 59 64 70 74 76 79
56 56 55 75 73 84 88 85 77 54 46 64 73 69 68 72 72 73 72 75 72 62 62 59 67 64 61 63 63 64 58 57 54 48 36 48 46 48 56 62 66 72 75 76 79
56 55 57 76 76 88 86 76 55 49 68 60 61 66 64 64 66 65 62 59 52 42 46 56 58 65 66 57 61 52 49 34 32 32 35 52 48 52 61 68 69 70 71 77 79
54 53 67 80 89 86 78 64 48 61 59 66 63 63 60 64 62 61 57 52 59 54 45 43 43 57 61 55 46 43 41 36 28 29 35 51 38 49 66 70 73 75 75 80 79
54 79 78 85 88 83 69 54 54 58 63 59 60 56 56 60 58 55 52 51 53 50 38 37 43 56 56 59 54 43 37 45 33 38 34 43 51 56 61 67 71 73 74 76 79
64 74 82 87 86 76 64 52 61 67 64 61 49 55 49 54 51 49 48 56 52 51 50 40 32 50 54 59 58 52 54 35 35 28 30 42 46 51 58 60 60 66 72 75 79
66 73 82 88 83 70 59 60 63 67 66 57 54 52 54 51 52 47 48 53 53 50 49 43 34 41 49 46 47 45 39 40 42 39 31 33 43 57 58 60 55 63 68 76 78
68 66 85 85 69 68 60 63 59 65 68 63 61 57 54 54 47 47 45 50 55 46 38 43 35 33 42 55 59 55 44 44 33 36 43 39 37 61 62 63 64 64 69 76 79
63 72 84 81 57 58 63 62 65 63 63 61 57 59 60 53 43 46 51 59 57 49 37 39 34 31 41 49 51 45 49 45 41 39 35 33 39 63 63 62 65 65 70 74 78
65 62 70 72 70 61 57 58 59 68 64 64 60 61 57 53 56 50 52 54 56 47 49 42 35 33 31 41 46 40 41 45 45 34 37 40 45 54 60 61 63 67 69 73 76
70 63 65 56 59 62 62 62 60 57 64 64 58 58 55 46 52 50 54 55 56 48 44 41 34 38 41 44 45 45 45 47 43 41 36 44 47 54 58 57 63 67 69 69 62
61 59 63 59 62 59 59 59 58 59 59 57 55 58 59 52 52 47 51 51 46 42 41 42 35 39 37 46 47 41 38 40 40 40 38 41 42 52 48 55 57 64 65 65 64
68 67 61 55 57 56 57 59 59 60 62 63 61 59 56 57 60 60 61 59 50 42 40 38 36 35 33 48 47 33 32 33 34 37 34 32 43 45 45 51 55 62 64 65 61